Current Weather Conditions: station 66021

sailwx.info

Wind from 160 at 21 knots

Air temperature -1.0° C
Water temperature 3.8° C

Last reported at 2019-Jan-23 08:00 UTC.
Time now 2019-Jan-23 09:57 UTC

Location: N 54°54' E 013°54'.
View on Google Maps.

See reports from other nearby stations

  
Tides and Currents Weather Stations Pressure Air Temp Water Temp Dewpoint Dewpoint Depression Visibility Wind Speed Wind Dir Waves Ship Positions
date/time (UTC)wind fromknots sea level pressurealtimeterstation pressurevisibilityair tempwater tempwave heightnotes
2019-Jan-23 08:00 160 21 -1.0 3.8
2019-Jan-23 07:00 160 21 -1.3 3.8
2019-Jan-23 06:00 160 17 -1.7 3.7
2019-Jan-23 05:00 160 17 -1.9 3.7
2019-Jan-23 04:00 160 17 -1.8 3.7
2019-Jan-23 03:00 160 17 -1.1 3.7
2019-Jan-23 02:00 160 17 -0.4 3.7
2019-Jan-23 01:00 170 17 0.3 3.7
2019-Jan-23 00:00 170 17 0.4 3.8
2019-Jan-22 23:00 180 17 0.4 3.8
2019-Jan-22 22:00 170 19 0.6 3.9
2019-Jan-22 21:00 170 19 0.9 3.9
2019-Jan-22 20:00 170 17 0.9 3.9
2019-Jan-22 19:00 180 15 0.5 3.9
2019-Jan-22 18:00 170 15 0.5 3.9
2019-Jan-22 17:00 170 15 0.6 3.9
2019-Jan-22 16:00 180 13 0.8 3.9
2019-Jan-22 15:00 170 13 0.8 3.9
2019-Jan-22 14:00 180 9 0.7 3.8
2019-Jan-22 13:00 200 9 0.5 3.8
2019-Jan-22 12:00 210 9 0.4 3.8
2019-Jan-22 11:00 210 13 0.9 3.8
2019-Jan-22 10:00 220 13 1.6 3.8
2019-Jan-22 09:00 250 15 1.9 3.8
2019-Jan-22 08:00 260 17 1.8 3.8
2019-Jan-22 07:00 240 17 1.6 3.8
2019-Jan-22 06:00 230 11 1.6 3.8
2019-Jan-22 05:00 300 5 1.9 3.8
2019-Jan-22 04:00 290 5 1.9 3.8
2019-Jan-22 03:00 300 7 2.0 3.8
2019-Jan-22 02:00 300 9 2.0 3.8
2019-Jan-22 01:00 300 9 1.9 3.8
2019-Jan-22 00:00 300 9 2.3 3.7
2019-Jan-21 23:00 290 11 2.8 3.7
2019-Jan-21 22:00 280 13 3.0 3.8
2019-Jan-21 21:00 240 17 2.3 3.8
2019-Jan-21 20:00 230 25 1.1 3.8
2019-Jan-21 19:00 230 27 0.7 3.8
2019-Jan-21 18:00 220 25 0.3 3.8
2019-Jan-21 17:00 230 25 -0.1 3.8
2019-Jan-21 16:00 230 23 3.8
2019-Jan-21 15:00 230 23 -0.3 3.8
2019-Jan-21 14:00 230 23 -0.8 3.8
2019-Jan-21 13:00 230 23 -1.0 3.8
2019-Jan-21 12:00 240 21 -0.5 3.8
2019-Jan-21 11:00 230 19 -0.7 3.8
2019-Jan-21 10:00 230 19 -0.8 3.8
2019-Jan-21 09:00 230 19 -0.7 3.8